| time (UTC) | temp C | wind direction | speed KPH | gust KPH | rain 1hr cm | rain 24hr cm | rain mn cm | humidity % | barometer mb |
| 20260507142139 | 6 | 320 | 4.8 | 8.0 | 0.00 | 0.00 | 0.00 | 59 | 1017.0 |
| 20260507141635 | 6 | 332 | 6.4 | 6.4 | 0.00 | 0.00 | 0.00 | 63 | 1016.8 |
| 20260507141132 | 6 | 335 | 3.2 | 6.4 | 0.00 | 0.00 | 0.00 | 62 | 1017.0 |
| 20260507140628 | 6 | 325 | 4.8 | 8.0 | 0.00 | 0.00 | 0.00 | 61 | 1016.7 |
| 20260507140126 | 6 | 283 | 6.4 | 6.4 | 0.00 | 0.00 | 0.00 | 62 | 1016.8 |
| 20260507135623 | 7 | 294 | 3.2 | 6.4 | 0.00 | 0.00 | 0.00 | 57 | 1016.6 |
| 20260507135120 | 7 | 247 | 3.2 | 6.4 | 0.00 | 0.00 | 0.00 | 61 | 1016.7 |
| 20260507134616 | 7 | 36 | 1.6 | 6.4 | 0.00 | 0.00 | 0.00 | 58 | 1016.6 |
| 20260507134112 | 6 | 274 | 3.2 | 4.8 | 0.00 | 0.00 | 0.00 | 62 | 1016.7 |
| 20260507133608 | 6 | 276 | 4.8 | 9.7 | 0.00 | 0.00 | 0.00 | 60 | 1016.5 |
| 20260507133106 | 6 | 144 | 11.3 | 14.5 | 0.00 | 0.00 | 0.00 | 60 | 1016.7 |
| 20260507132603 | 6 | 99 | 6.4 | 12.9 | 0.00 | 0.00 | 0.00 | 62 | 1016.4 |
| 20260507132059 | 6 | 100 | 6.4 | 12.9 | 0.00 | 0.00 | 0.00 | 61 | 1016.5 |
| 20260507131556 | 6 | 72 | 4.8 | 9.7 | 0.00 | 0.00 | 0.00 | 64 | 1016.6 |
| 20260507131054 | 6 | 137 | 4.8 | 12.9 | 0.00 | 0.00 | 0.00 | 63 | 1016.5 |
| 20260507130550 | 6 | 93 | 9.7 | 16.1 | 0.00 | 0.00 | 0.00 | 63 | 1016.6 |
| 20260507130048 | 6 | 59 | 1.6 | 14.5 | 0.00 | 0.00 | 0.00 | 65 | 1016.7 |
| 20260507125547 | 5 | 103 | 8.0 | 12.9 | 0.00 | 0.00 | 0.00 | 62 | 1016.6 |
| 20260507125044 | 5 | 129 | 6.4 | 17.7 | 0.00 | 0.00 | 0.00 | 62 | 1016.4 |
| 20260507124540 | 6 | 157 | 6.4 | 19.3 | 0.00 | 0.00 | 0.00 | 61 | 1016.3 |
| 20260507124038 | 5 | 150 | 12.9 | 20.9 | 0.00 | 0.00 | 0.00 | 63 | 1016.5 |
| 20260507123536 | 5 | 159 | 9.7 | 17.7 | 0.00 | 0.00 | 0.00 | 61 | 1016.3 |
| 20260507123032 | 6 | 155 | 9.7 | 14.5 | 0.00 | 0.00 | 0.00 | 62 | 1016.3 |
| 20260507122528 | 6 | 153 | 16.1 | 17.7 | 0.00 | 0.00 | 0.00 | 61 | 1016.3 |
| 20260507122024 | 6 | 176 | 25.7 | 30.6 | 0.00 | 0.00 | 0.00 | 62 | 1016.2 |
| 20260507121519 | 6 | 274 | 0.0 | 11.3 | 0.00 | 0.00 | 0.00 | 63 | 1016.1 |
| 20260507121015 | 6 | 150 | 6.4 | 6.4 | 0.00 | 0.00 | 0.00 | 68 | 1016.1 |
| 20260507120512 | 6 | 244 | 12.9 | 17.7 | 0.00 | 0.00 | 0.00 | 65 | 1016.0 |
| 20260507120009 | 6 | 274 | 17.7 | 20.9 | 0.00 | 0.00 | 0.00 | 67 | 1015.8 |
| 20260507115505 | 6 | 287 | 19.3 | 24.1 | 0.00 | 0.00 | 0.00 | 65 | 1015.8 |
| 20260507115001 | 6 | 285 | 14.5 | 17.7 | 0.00 | 0.00 | 0.00 | 65 | 1015.8 |
| 20260507114457 | 6 | 266 | 9.7 | 12.9 | 0.00 | 0.00 | 0.00 | 65 | 1015.8 |
| 20260507113955 | 6 | 263 | 0.0 | 4.8 | 0.00 | 0.00 | 0.00 | 62 | 1015.8 |
| 20260507113452 | 6 | 107 | 3.2 | 17.7 | 0.00 | 0.00 | 0.00 | 57 | 1015.6 |
| 20260507112949 | 6 | 163 | 11.3 | 14.5 | 0.00 | 0.00 | 0.00 | 58 | 1015.4 |
| 20260507112446 | 6 | 145 | 11.3 | 17.7 | 0.00 | 0.00 | 0.00 | 56 | 1015.5 |
| 20260507111943 | 6 | 165 | 11.3 | 22.5 | 0.00 | 0.00 | 0.00 | 56 | 1015.6 |
| 20260507111440 | 6 | 157 | 8.0 | 9.7 | 0.00 | 0.00 | 0.00 | 59 | 1015.3 |
| 20260507110936 | 6 | 286 | 3.2 | 8.0 | 0.00 | 0.00 | 0.00 | 62 | 1015.4 |
| 20260507110433 | 6 | 324 | 0.0 | 3.2 | 0.00 | 0.00 | 0.00 | 63 | 1015.3 |
| 20260507105929 | 6 | 312 | 4.8 | 9.7 | 0.00 | 0.00 | 0.00 | 67 | 1015.3 |
| 20260507105426 | 6 | 284 | 11.3 | 11.3 | 0.00 | 0.00 | 0.00 | 70 | 1015.2 |
| 20260507104923 | 6 | 277 | 4.8 | 14.5 | 0.00 | 0.00 | 0.00 | 72 | 1015.3 |
| 20260507104420 | 6 | 305 | 9.7 | 14.5 | 0.00 | 0.00 | 0.00 | 72 | 1015.2 |
| 20260507103915 | 6 | 287 | 9.7 | 16.1 | 0.00 | 0.00 | 0.00 | 73 | 1015.1 |
| 20260507103413 | 5 | 282 | 9.7 | 19.3 | 0.00 | 0.00 | 0.00 | 74 | 1015.2 |
| 20260507102909 | 6 | 278 | 12.9 | 17.7 | 0.00 | 0.00 | 0.00 | 71 | 1014.9 |
| 20260507102406 | 6 | 316 | 8.0 | 11.3 | 0.00 | 0.00 | 0.00 | 72 | 1015.0 |
| 20260507101902 | 6 | 280 | 12.9 | 17.7 | 0.00 | 0.00 | 0.00 | 71 | 1015.1 |
| 20260507101402 | 6 | 249 | 9.7 | 17.7 | 0.00 | 0.00 | 0.00 | 69 | 1014.9 |
| 20260507100859 | 6 | 288 | 12.9 | 17.7 | 0.00 | 0.00 | 0.00 | 70 | 1014.8 |
| 20260507100357 | 6 | 199 | 1.6 | 8.0 | 0.00 | 0.00 | 0.00 | 63 | 1014.9 |
| 20260507095855 | 5 | 275 | 9.7 | 16.1 | 0.00 | 0.00 | 0.00 | 74 | 1014.8 |
| 20260507095351 | 5 | 279 | 8.0 | 14.5 | 0.00 | 0.00 | 0.00 | 73 | 1014.7 |
| 20260507094849 | 5 | 304 | 8.0 | 17.7 | 0.00 | 0.00 | 0.00 | 75 | 1014.8 |
| 20260507094345 | 5 | 280 | 9.7 | 20.9 | 0.00 | 0.00 | 0.00 | 75 | 1014.8 |
| 20260507093842 | 5 | 291 | 12.9 | 19.3 | 0.00 | 0.00 | 0.00 | 71 | 1014.8 |
| 20260507093340 | 5 | 296 | 14.5 | 17.7 | 0.00 | 0.00 | 0.00 | 73 | 1014.6 |
| 20260507092838 | 6 | 279 | 8.0 | 12.9 | 0.00 | 0.00 | 0.00 | 66 | 1014.8 |
| 20260507092334 | 6 | 262 | 9.7 | 14.5 | 0.00 | 0.00 | 0.00 | 64 | 1014.7 |
| 20260507091830 | 6 | 157 | 3.2 | 14.5 | 0.00 | 0.00 | 0.00 | 56 | 1014.7 |
| 20260507091327 | 6 | 147 | 3.2 | 6.4 | 0.00 | 0.00 | 0.00 | 58 | 1014.5 |
| 20260507090823 | 6 | 152 | 8.0 | 17.7 | 0.00 | 0.00 | 0.00 | 54 | 1014.6 |
| 20260507090319 | 6 | 170 | 4.8 | 9.7 | 0.00 | 0.00 | 0.00 | 56 | 1014.5 |
| 20260507085816 | 6 | 207 | 3.2 | 9.7 | 0.00 | 0.00 | 0.00 | 56 | 1014.4 |
| 20260507085313 | 7 | 343 | 4.8 | 9.7 | 0.00 | 0.00 | 0.00 | 55 | 1014.2 |
| 20260507084811 | 6 | 309 | 3.2 | 4.8 | 0.00 | 0.00 | 0.00 | 60 | 1014.3 |
| 20260507084307 | 6 | 109 | 1.6 | 3.2 | 0.00 | 0.00 | 0.00 | 58 | 1014.2 |
| 20260507083805 | 6 | 351 | 3.2 | 4.8 | 0.00 | 0.00 | 0.00 | 56 | 1014.4 |
| 20260507083301 | 6 | 349 | 6.4 | 6.4 | 0.00 | 0.00 | 0.00 | 56 | 1014.1 |
| 20260507082757 | 6 | 315 | 9.7 | 11.3 | 0.00 | 0.00 | 0.00 | 62 | 1014.2 |
| 20260507082253 | 6 | 302 | 8.0 | 8.0 | 0.00 | 0.00 | 0.00 | 64 | 1014.3 |
| 20260507081750 | 6 | 265 | 6.4 | 9.7 | 0.00 | 0.00 | 0.00 | 59 | 1014.1 |
| 20260507081246 | 6 | 246 | 3.2 | 8.0 | 0.00 | 0.00 | 0.00 | 61 | 1014.1 |
| 20260507080742 | 6 | 294 | 4.8 | 8.0 | 0.00 | 0.00 | 0.00 | 57 | 1014.1 |
| 20260507080239 | 6 | 171 | 1.6 | 12.9 | 0.00 | 0.00 | 0.00 | 53 | 1014.0 |
| 20260507075734 | 6 | 148 | 9.7 | 17.7 | 0.00 | 0.00 | 0.00 | 55 | 1014.1 |
| 20260507075231 | 6 | 146 | 3.2 | 12.9 | 0.00 | 0.00 | 0.00 | 57 | 1014.1 |
| 20260507074727 | 6 | 176 | 0.0 | 12.9 | 0.00 | 0.00 | 0.00 | 56 | 1014.0 |
| 20260507074225 | 6 | 177 | 4.8 | 12.9 | 0.00 | 0.00 | 0.00 | 57 | 1013.9 |
| 20260507073722 | 6 | 144 | 6.4 | 17.7 | 0.00 | 0.00 | 0.00 | 56 | 1013.9 |
| 20260507073218 | 6 | 165 | 8.0 | 12.9 | 0.00 | 0.00 | 0.00 | 54 | 1013.9 |
| 20260507072716 | 6 | 151 | 8.0 | 14.5 | 0.00 | 0.00 | 0.00 | 54 | 1013.7 |
| 20260507072213 | 6 | 152 | 8.0 | 16.1 | 0.00 | 0.00 | 0.00 | 55 | 1013.8 |
| 20260507071711 | 7 | 152 | 4.8 | 17.7 | 0.00 | 0.00 | 0.00 | 55 | 1013.7 |
| 20260507071207 | 7 | 165 | 6.4 | 14.5 | 0.00 | 0.00 | 0.00 | 57 | 1013.9 |
| 20260507070704 | 7 | 164 | 9.7 | 17.7 | 0.00 | 0.00 | 0.00 | 55 | 1013.7 |
| 20260507070201 | 7 | 82 | 1.6 | 4.8 | 0.00 | 0.00 | 0.00 | 58 | 1013.6 |
| 20260507065657 | 6 | 42 | 0.0 | 6.4 | 0.00 | 0.00 | 0.00 | 55 | 1013.6 |
| 20260507065154 | 6 | 139 | 3.2 | 8.0 | 0.00 | 0.00 | 0.00 | 57 | 1013.7 |
| 20260507064651 | 5 | 141 | 8.0 | 12.9 | 0.00 | 0.00 | 0.00 | 57 | 1013.6 |
| 20260507064150 | 6 | 151 | 11.3 | 11.3 | 0.00 | 0.00 | 0.00 | 58 | 1013.6 |
| 20260507063647 | 5 | 153 | 8.0 | 12.9 | 0.00 | 0.00 | 0.00 | 58 | 1013.4 |
| 20260507063144 | 6 | 162 | 14.5 | 19.3 | 0.00 | 0.00 | 0.00 | 62 | 1013.4 |
| 20260507062641 | 5 | 125 | 6.4 | 8.0 | 0.00 | 0.00 | 0.00 | 65 | 1013.4 |
| 20260507062138 | 5 | 137 | 6.4 | 6.4 | 0.00 | 0.00 | 0.00 | 66 | 1013.3 |
| 20260507061636 | 5 | 117 | 4.8 | 8.0 | 0.00 | 0.00 | 0.00 | 66 | 1013.4 |
| 20260507061134 | 5 | 124 | 4.8 | 6.4 | 0.00 | 0.00 | 0.00 | 66 | 1013.3 |
| 20260507060632 | 5 | 145 | 9.7 | 11.3 | 0.00 | 0.00 | 0.00 | 66 | 1013.4 |
| 20260507060128 | 5 | 83 | 3.2 | 9.7 | 0.00 | 0.00 | 0.00 | 69 | 1013.5 |
| 20260507055623 | 4 | 87 | 1.6 | 9.7 | 0.00 | 0.00 | 0.00 | 68 | 1013.4 |
| 20260507055120 | 4 | 104 | 3.2 | 4.8 | 0.00 | 0.00 | 0.00 | 72 | 1013.4 |
| 20260507054615 | 4 | 35 | 0.0 | 3.2 | 0.00 | 0.00 | 0.00 | 73 | 1013.3 |
| 20260507054113 | 4 | 59 | 4.8 | 4.8 | 0.00 | 0.00 | 0.00 | 75 | 1013.3 |
| 20260507053611 | 3 | 49 | 6.4 | 6.4 | 0.00 | 0.00 | 0.00 | 76 | 1013.2 |
| 20260507053109 | 3 | 55 | 11.3 | 12.9 | 0.00 | 0.00 | 0.00 | 80 | 1013.1 |
| 20260507052607 | 3 | 84 | 6.4 | 8.0 | 0.00 | 0.00 | 0.00 | 83 | 1013.2 |
| 20260507052103 | 3 | 38 | 3.2 | 4.8 | 0.00 | 0.00 | 0.00 | 84 | 1013.3 |
| 20260507051601 | 3 | 45 | 3.2 | 4.8 | 0.00 | 0.00 | 0.00 | 85 | 1013.2 |
| 20260507051057 | 3 | 81 | 1.6 | 3.2 | 0.00 | 0.00 | 0.00 | 86 | 1013.2 |
| 20260507050554 | 3 | 55 | 1.6 | 1.6 | 0.00 | 0.00 | 0.00 | 85 | 1013.1 |
| 20260507050050 | 3 | 9 | 1.6 | 3.2 | 0.00 | 0.00 | 0.00 | 85 | 1013.2 |
| 20260507045547 | 3 | 99 | 3.2 | 6.4 | 0.00 | 0.00 | 0.00 | 85 | 1013.1 |
| 20260507045044 | 3 | 46 | 4.8 | 6.4 | 0.00 | 0.00 | 0.00 | 86 | 1013.2 |
| 20260507044541 | 2 | 77 | 6.4 | 6.4 | 0.00 | 0.00 | 0.00 | 87 | 1013.1 |
| 20260507044038 | 2 | 67 | 4.8 | 6.4 | 0.00 | 0.00 | 0.00 | 87 | 1013.2 |
| 20260507043533 | 2 | 70 | 4.8 | 4.8 | 0.00 | 0.00 | 0.00 | 87 | 1012.9 |
| 20260507043031 | 2 | 47 | 6.4 | 8.0 | 0.00 | 0.00 | 0.00 | 87 | 1013.3 |
| 20260507042527 | 2 | 79 | 3.2 | 3.2 | 0.00 | 0.00 | 0.00 | 87 | 1012.9 |
| 20260507042023 | 2 | 94 | 3.2 | 4.8 | 0.00 | 0.00 | 0.00 | 88 | 1013.2 |
| 20260507041520 | 2 | 77 | 4.8 | 6.4 | 0.00 | 0.00 | 0.00 | 88 | 1013.0 |
| 20260507041017 | 2 | 92 | 3.2 | 3.2 | 0.00 | 0.00 | 0.00 | 88 | 1013.1 |
| 20260507040513 | 2 | 96 | 3.2 | 4.8 | 0.00 | 0.00 | 0.00 | 89 | 1013.1 |
| 20260507040009 | 2 | 32 | 3.2 | 4.8 | 0.00 | 0.00 | 0.00 | 90 | 1013.2 |
| 20260507035505 | 2 | 66 | 3.2 | 4.8 | 0.00 | 0.00 | 0.00 | 91 | 1013.0 |
| 20260507035002 | 2 | 104 | 0.0 | 4.8 | 0.00 | 0.00 | 0.00 | 92 | 1012.9 |
| 20260507034459 | 2 | 68 | 4.8 | 8.0 | 0.00 | 0.00 | 0.00 | 92 | 1012.9 |
| 20260507033957 | 1 | 59 | 6.4 | 8.0 | 0.00 | 0.00 | 0.00 | 92 | 1012.8 |
| 20260507033454 | 1 | 64 | 6.4 | 6.4 | 0.00 | 0.00 | 0.00 | 92 | 1012.7 |
| 20260507032951 | 1 | 69 | 6.4 | 6.4 | 0.00 | 0.00 | 0.00 | 93 | 1012.9 |
| 20260507032449 | 1 | 69 | 3.2 | 4.8 | 0.00 | 0.00 | 0.00 | 93 | 1012.9 |
| 20260507031944 | 1 | 72 | 3.2 | 6.4 | 0.00 | 0.00 | 0.00 | 93 | 1012.8 |
| 20260507031441 | 1 | 71 | 4.8 | 6.4 | 0.00 | 0.00 | 0.00 | 93 | 1012.7 |
| 20260507030938 | 1 | 67 | 6.4 | 8.0 | 0.00 | 0.00 | 0.00 | 92 | 1012.7 |
| 20260507030435 | 1 | 61 | 6.4 | 6.4 | 0.00 | 0.00 | 0.00 | 92 | 1012.7 |
| 20260507025932 | 1 | 68 | 6.4 | 6.4 | 0.00 | 0.00 | 0.00 | 92 | 1012.4 |
| 20260507025429 | 1 | 88 | 6.4 | 8.0 | 0.00 | 0.00 | 0.00 | 91 | 1012.7 |
| 20260507024927 | 1 | 50 | 4.8 | 4.8 | 0.00 | 0.00 | 0.00 | 92 | 1012.7 |
| 20260507024424 | 1 | 76 | 4.8 | 6.4 | 0.00 | 0.00 | 0.00 | 92 | 1012.6 |
| 20260507023920 | 1 | 66 | 6.4 | 8.0 | 0.00 | 0.00 | 0.00 | 92 | 1012.5 |
| 20260507023417 | 1 | 64 | 6.4 | 6.4 | 0.00 | 0.00 | 0.00 | 92 | 1012.6 |
| 20260507022914 | 1 | 77 | 4.8 | 6.4 | 0.00 | 0.00 | 0.00 | 92 | 1012.5 |
| 20260507022411 | 1 | 57 | 9.7 | 11.3 | 0.00 | 0.00 | 0.00 | 92 | 1012.6 |
| 20260507021907 | 1 | 63 | 6.4 | 8.0 | 0.00 | 0.00 | 0.00 | 91 | 1012.5 |
| 20260507021402 | 1 | 57 | 6.4 | 8.0 | 0.00 | 0.00 | 0.00 | 91 | 1012.6 |
| 20260507020901 | 1 | 54 | 3.2 | 6.4 | 0.00 | 0.00 | 0.00 | 92 | 1012.6 |
| 20260507020357 | 1 | 78 | 6.4 | 6.4 | 0.00 | 0.00 | 0.00 | 92 | 1012.7 |
| 20260507015854 | 1 | 52 | 8.0 | 9.7 | 0.00 | 0.00 | 0.00 | 91 | 1012.6 |
| 20260507015352 | 1 | 68 | 8.0 | 9.7 | 0.00 | 0.00 | 0.00 | 91 | 1012.6 |
| 20260507014848 | 1 | 79 | 8.0 | 8.0 | 0.00 | 0.00 | 0.00 | 91 | 1012.7 |
| 20260507014344 | 1 | 91 | 6.4 | 6.4 | 0.05 | 0.00 | 0.00 | 90 | 1012.5 |
| 20260507013841 | 1 | 62 | 9.7 | 14.5 | 0.05 | 0.00 | 0.00 | 90 | 1012.6 |
| 20260507013338 | 1 | 55 | 9.7 | 11.3 | 0.00 | 0.00 | 0.00 | 88 | 1012.6 |
| 20260507012836 | 1 | 53 | 8.0 | 8.0 | 0.00 | 0.00 | 0.00 | 87 | 1012.6 |
| 20260507012331 | 1 | 41 | 9.7 | 9.7 | 0.00 | 0.00 | 0.00 | 86 | 1012.6 |
| 20260507011829 | 1 | 53 | 6.4 | 8.0 | 0.00 | 0.00 | 0.00 | 85 | 1012.6 |
| 20260507011325 | 1 | 106 | 4.8 | 9.7 | 0.00 | 0.00 | 0.00 | 85 | 1012.3 |
| 20260507010825 | 1 | 58 | 9.7 | 9.7 | 0.00 | 0.00 | 0.00 | 84 | 1012.4 |
| 20260507010321 | 1 | 85 | 4.8 | 6.4 | 0.00 | 0.00 | 0.00 | 85 | 1012.3 |
| 20260507005819 | 1 | 75 | 8.0 | 12.9 | 0.00 | 0.00 | 0.00 | 85 | 1012.3 |
| 20260507005316 | 0 | 61 | 9.7 | 11.3 | 0.00 | 0.00 | 0.00 | 85 | 1012.1 |
| 20260507004812 | 1 | 51 | 8.0 | 11.3 | 0.00 | 0.00 | 0.00 | 85 | 1012.1 |
| 20260507004310 | 1 | 68 | 8.0 | 9.7 | 0.00 | 0.00 | 0.00 | 84 | 1012.1 |
| 20260507003806 | 0 | 65 | 9.7 | 9.7 | 0.00 | 0.00 | 0.00 | 86 | 1012.0 |
| 20260507003301 | 0 | 77 | 6.4 | 9.7 | 0.00 | 0.00 | 0.00 | 86 | 1012.1 |
| 20260507002757 | 0 | 88 | 6.4 | 9.7 | 0.00 | 0.00 | 0.00 | 85 | 1012.0 |
| 20260507002253 | 0 | 67 | 8.0 | 9.7 | 0.00 | 0.00 | 0.00 | 86 | 1011.9 |
| 20260507001750 | 0 | 68 | 9.7 | 9.7 | 0.00 | 0.00 | 0.00 | 86 | 1011.9 |
| 20260507001248 | 0 | 69 | 11.3 | 14.5 | 0.00 | 0.00 | 0.00 | 86 | 1011.9 |
| 20260507000744 | 0 | 67 | 8.0 | 9.7 | 0.00 | 0.00 | 0.00 | 87 | 1011.9 |
| 20260507000240 | 0 | 63 | 12.9 | 14.5 | 0.00 | 0.00 | 0.00 | 84 | 1012.0 |
| 20260506235737 | 0 | 72 | 8.0 | 11.3 | 0.00 | 0.00 | 0.00 | 86 | 1011.9 |
| 20260506235232 | 0 | 64 | 14.5 | 14.5 | 0.00 | 0.00 | 0.00 | 85 | 1011.8 |
| 20260506234729 | 0 | 56 | 12.9 | 14.5 | 0.00 | 0.00 | 0.00 | 86 | 1011.8 |
| 20260506234227 | 0 | 82 | 8.0 | 9.7 | 0.00 | 0.00 | 0.00 | 84 | 1011.7 |
| 20260506233724 | 0 | 77 | 8.0 | 9.7 | 0.00 | 0.00 | 0.00 | 83 | 1011.7 |
| 20260506233220 | 0 | 91 | 6.4 | 9.7 | 0.00 | 0.00 | 0.00 | 84 | 1011.6 |
| 20260506232717 | 0 | 79 | 9.7 | 9.7 | 0.00 | 0.00 | 0.00 | 84 | 1011.6 |
| 20260506232212 | 0 | 74 | 9.7 | 9.7 | 0.00 | 0.00 | 0.00 | 84 | 1011.6 |
| 20260506231709 | 0 | 72 | 8.0 | 11.3 | 0.00 | 0.00 | 0.00 | 85 | 1011.6 |
| 20260506231208 | 0 | 70 | 11.3 | 12.9 | 0.00 | 0.00 | 0.00 | 86 | 1011.4 |
| 20260506230704 | 0 | 57 | 11.3 | 14.5 | 0.00 | 0.00 | 0.00 | 85 | 1011.5 |
| 20260506230201 | 0 | 61 | 12.9 | 14.5 | 0.00 | 0.00 | 0.00 | 82 | 1011.5 |
| 20260506225657 | 0 | 78 | 8.0 | 9.7 | 0.00 | 0.00 | 0.00 | 82 | 1011.4 |
| 20260506225154 | 0 | 62 | 11.3 | 12.9 | 0.00 | 0.00 | 0.00 | 83 | 1011.7 |
| 20260506224651 | 0 | 76 | 6.4 | 8.0 | 0.00 | 0.00 | 0.00 | 84 | 1011.4 |
| 20260506224147 | 0 | 74 | 8.0 | 9.7 | 0.00 | 0.00 | 0.00 | 84 | 1011.6 |
| 20260506223644 | 0 | 68 | 9.7 | 11.3 | 0.00 | 0.00 | 0.00 | 85 | 1011.5 |
| 20260506223140 | 0 | 76 | 11.3 | 14.5 | 0.00 | 0.00 | 0.00 | 86 | 1011.4 |
| 20260506222637 | 0 | 63 | 12.9 | 14.5 | 0.00 | 0.00 | 0.00 | 84 | 1011.5 |
| 20260506222133 | 0 | 84 | 8.0 | 9.7 | 0.00 | 0.00 | 0.00 | 85 | 1011.5 |
| 20260506221631 | 0 | 66 | 14.5 | 16.1 | 0.00 | 0.00 | 0.00 | 84 | 1011.3 |
| 20260506221129 | 0 | 78 | 9.7 | 9.7 | 0.00 | 0.00 | 0.00 | 84 | 1011.5 |
| 20260506220625 | 0 | 79 | 9.7 | 9.7 | 0.00 | 0.00 | 0.00 | 85 | 1011.3 |
| 20260506220120 | 0 | 63 | 14.5 | 14.5 | 0.00 | 0.00 | 0.00 | 84 | 1011.4 |
| 20260506215618 | 0 | 74 | 11.3 | 16.1 | 0.00 | 0.00 | 0.00 | 84 | 1011.2 |
| 20260506215113 | 0 | 53 | 14.5 | 16.1 | 0.00 | 0.00 | 0.00 | 82 | 1011.2 |
| 20260506214610 | 0 | 74 | 9.7 | 11.3 | 0.00 | 0.00 | 0.00 | 81 | 1011.3 |
| 20260506214107 | 0 | 84 | 6.4 | 8.0 | 0.00 | 0.00 | 0.00 | 84 | 1011.4 |
| 20260506213605 | 0 | 67 | 11.3 | 16.1 | 0.00 | 0.00 | 0.00 | 84 | 1011.2 |
| 20260506213102 | 0 | 81 | 8.0 | 9.7 | 0.00 | 0.00 | 0.00 | 81 | 1011.3 |
| 20260506212559 | 0 | 83 | 6.4 | 9.7 | 0.00 | 0.00 | 0.00 | 81 | 1011.3 |
| 20260506212054 | 0 | 82 | 9.7 | 9.7 | 0.00 | 0.00 | 0.00 | 82 | 1011.2 |
| 20260506211550 | 0 | 79 | 9.7 | 12.9 | 0.00 | 0.00 | 0.00 | 83 | 1011.4 |
| 20260506211048 | 0 | 67 | 14.5 | 16.1 | 0.00 | 0.00 | 0.00 | 81 | 1011.4 |
| 20260506210544 | 0 | 74 | 9.7 | 11.3 | 0.00 | 0.00 | 0.00 | 82 | 1011.3 |
| 20260506210041 | 0 | 81 | 8.0 | 9.7 | 0.00 | 0.00 | 0.00 | 81 | 1011.0 |
| 20260506205537 | 1 | 73 | 11.3 | 12.9 | 0.00 | 0.00 | 0.00 | 81 | 1011.2 |
| 20260506205032 | 0 | 68 | 9.7 | 11.3 | 0.00 | 0.00 | 0.00 | 83 | 1011.2 |
| 20260506204531 | 1 | 64 | 12.9 | 14.5 | 0.00 | 0.00 | 0.00 | 80 | 1011.1 |
| 20260506204027 | 1 | 74 | 9.7 | 9.7 | 0.00 | 0.00 | 0.00 | 77 | 1011.3 |
| 20260506203526 | 2 | 78 | 6.4 | 9.7 | 0.00 | 0.00 | 0.00 | 77 | 1011.0 |
| 20260506203022 | 2 | 67 | 11.3 | 12.9 | 0.00 | 0.00 | 0.00 | 79 | 1011.1 |
| 20260506202519 | 1 | 58 | 12.9 | 17.7 | 0.00 | 0.00 | 0.00 | 79 | 1010.9 |
| 20260506202016 | 2 | 62 | 11.3 | 14.5 | 0.00 | 0.00 | 0.00 | 75 | 1011.0 |
| 20260506201514 | 2 | 71 | 12.9 | 12.9 | 0.00 | 0.00 | 0.00 | 77 | 1011.0 |
| 20260506201010 | 2 | 67 | 12.9 | 12.9 | 0.00 | 0.00 | 0.00 | 75 | 1011.0 |
| 20260506200506 | 3 | 78 | 8.0 | 8.0 | 0.00 | 0.00 | 0.00 | 74 | 1011.1 |
| 20260506200003 | 3 | 73 | 8.0 | 9.7 | 0.00 | 0.00 | 0.00 | 73 | 1010.9 |
| 20260506195500 | 3 | 83 | 4.8 | 4.8 | 0.00 | 0.00 | 0.00 | 72 | 1010.9 |
| 20260506194956 | 3 | 73 | 6.4 | 8.0 | 0.00 | 0.00 | 0.00 | 72 | 1010.9 |
| 20260506194454 | 3 | 104 | 6.4 | 6.4 | 0.00 | 0.00 | 0.00 | 72 | 1010.7 |
| 20260506193950 | 3 | 60 | 4.8 | 8.0 | 0.00 | 0.00 | 0.00 | 72 | 1011.0 |
| 20260506193448 | 4 | 71 | 3.2 | 6.4 | 0.00 | 0.00 | 0.00 | 72 | 1011.0 |
| 20260506192944 | 4 | 110 | 4.8 | 11.3 | 0.00 | 0.00 | 0.00 | 72 | 1010.9 |
| 20260506192441 | 4 | 106 | 4.8 | 11.3 | 0.00 | 0.00 | 0.00 | 72 | 1010.7 |
| 20260506191938 | 4 | 131 | 8.0 | 9.7 | 0.00 | 0.00 | 0.00 | 72 | 1010.8 |
| 20260506191434 | 4 | 134 | 4.8 | 6.4 | 0.00 | 0.00 | 0.00 | 72 | 1010.8 |
| 20260506190931 | 4 | 178 | 6.4 | 12.9 | 0.00 | 0.00 | 0.00 | 72 | 1010.7 |
| 20260506190427 | 4 | 136 | 6.4 | 11.3 | 0.00 | 0.00 | 0.00 | 71 | 1010.7 |
| 20260506185925 | 5 | 85 | 4.8 | 9.7 | 0.00 | 0.00 | 0.00 | 71 | 1010.6 |
| 20260506185422 | 5 | 176 | 3.2 | 11.3 | 0.00 | 0.00 | 0.00 | 70 | 1010.5 |
| 20260506184919 | 5 | 104 | 3.2 | 6.4 | 0.00 | 0.00 | 0.00 | 69 | 1010.6 |
| 20260506184415 | 5 | 125 | 1.6 | 11.3 | 0.00 | 0.00 | 0.00 | 69 | 1010.6 |
| 20260506183913 | 5 | 155 | 6.4 | 16.1 | 0.00 | 0.00 | 0.00 | 69 | 1010.3 |
| 20260506183408 | 5 | 116 | 4.8 | 11.3 | 0.00 | 0.00 | 0.00 | 70 | 1010.6 |
| 20260506182905 | 5 | 134 | 6.4 | 9.7 | 0.00 | 0.00 | 0.00 | 69 | 1010.4 |
| 20260506182402 | 5 | 127 | 8.0 | 14.5 | 0.00 | 0.00 | 0.00 | 69 | 1010.5 |
| 20260506181859 | 5 | 126 | 6.4 | 11.3 | 0.00 | 0.00 | 0.00 | 68 | 1010.3 |
| 20260506181358 | 5 | 162 | 8.0 | 12.9 | 0.00 | 0.00 | 0.00 | 64 | 1010.6 |
| 20260506180854 | 5 | 174 | 6.4 | 12.9 | 0.00 | 0.00 | 0.00 | 65 | 1010.4 |
| 20260506180350 | 5 | 159 | 8.0 | 14.5 | 0.00 | 0.00 | 0.00 | 64 | 1010.5 |
| 20260506175847 | 5 | 149 | 8.0 | 12.9 | 0.00 | 0.00 | 0.00 | 65 | 1010.4 |
| 20260506175344 | 5 | 172 | 11.3 | 14.5 | 0.00 | 0.00 | 0.00 | 64 | 1010.3 |
| 20260506174841 | 5 | 162 | 14.5 | 16.1 | 0.00 | 0.00 | 0.00 | 64 | 1010.2 |
| 20260506174339 | 5 | 176 | 4.8 | 14.5 | 0.00 | 0.00 | 0.00 | 65 | 1010.4 |
| 20260506173836 | 5 | 142 | 8.0 | 16.1 | 0.00 | 0.00 | 0.00 | 65 | 1010.3 |
| 20260506173332 | 5 | 144 | 4.8 | 14.5 | 0.00 | 0.00 | 0.00 | 66 | 1010.4 |
| 20260506172830 | 5 | 148 | 11.3 | 14.5 | 0.00 | 0.00 | 0.00 | 66 | 1010.1 |
| 20260506172326 | 5 | 155 | 17.7 | 19.3 | 0.00 | 0.00 | 0.00 | 66 | 1010.3 |
| 20260506171824 | 6 | 152 | 9.7 | 16.1 | 0.00 | 0.00 | 0.00 | 66 | 1010.2 |
| 20260506171321 | 6 | 164 | 9.7 | 19.3 | 0.00 | 0.00 | 0.00 | 66 | 1010.3 |
| 20260506170819 | 6 | 162 | 9.7 | 17.7 | 0.00 | 0.00 | 0.00 | 66 | 1010.2 |
| 20260506170314 | 6 | 116 | 8.0 | 19.3 | 0.00 | 0.00 | 0.00 | 65 | 1010.1 |
| 20260506165814 | 6 | 157 | 9.7 | 20.9 | 0.00 | 0.00 | 0.00 | 62 | 1010.1 |
| 20260506165310 | 6 | 149 | 12.9 | 16.1 | 0.00 | 0.00 | 0.00 | 61 | 1010.1 |
| 20260506164807 | 6 | 144 | 8.0 | 11.3 | 0.00 | 0.00 | 0.00 | 63 | 1010.1 |
| 20260506164304 | 6 | 172 | 8.0 | 16.1 | 0.00 | 0.00 | 0.00 | 62 | 1010.0 |
| 20260506163800 | 6 | 161 | 12.9 | 16.1 | 0.00 | 0.00 | 0.00 | 61 | 1010.1 |
| 20260506163255 | 6 | 140 | 6.4 | 14.5 | 0.00 | 0.00 | 0.00 | 63 | 1009.9 |
| 20260506162751 | 6 | 167 | 14.5 | 17.7 | 0.00 | 0.00 | 0.00 | 61 | 1010.0 |
| 20260506162250 | 6 | 120 | 8.0 | 14.5 | 0.00 | 0.00 | 0.00 | 60 | 1009.9 |
| 20260506161747 | 6 | 137 | 9.7 | 17.7 | 0.00 | 0.00 | 0.00 | 60 | 1010.0 |
| 20260506161244 | 7 | 75 | 3.2 | 19.3 | 0.00 | 0.00 | 0.00 | 58 | 1010.0 |
| 20260506160741 | 7 | 145 | 9.7 | 16.1 | 0.00 | 0.00 | 0.00 | 57 | 1009.9 |
| 20260506160238 | 7 | 147 | 12.9 | 19.3 | 0.00 | 0.00 | 0.00 | 56 | 1009.9 |
| 20260506155737 | 7 | 157 | 6.4 | 14.5 | 0.00 | 0.00 | 0.00 | 56 | 1009.7 |
| 20260506155233 | 7 | 164 | 6.4 | 17.7 | 0.00 | 0.00 | 0.00 | 55 | 1009.8 |
| 20260506153340 | 7 | 310 | 4.8 | 9.7 | 0.00 | 0.00 | 0.00 | 55 | 1009.7 |
| 20260506152837 | 7 | 284 | 8.0 | 9.7 | 0.00 | 0.00 | 0.00 | 59 | 1009.5 |
| 20260506152334 | 8 | 271 | 4.8 | 12.9 | 0.00 | 0.00 | 0.00 | 56 | 1009.6 |
| 20260506151833 | 7 | 16 | 6.4 | 16.1 | 0.00 | 0.00 | 0.00 | 54 | 1009.7 |
| 20260506151329 | 7 | 296 | 9.7 | 12.9 | 0.00 | 0.00 | 0.00 | 55 | 1009.8 |
| 20260506150826 | 7 | 312 | 8.0 | 9.7 | 0.00 | 0.00 | 0.00 | 53 | 1009.8 |
| 20260506150323 | 7 | 20 | 4.8 | 8.0 | 0.00 | 0.00 | 0.00 | 54 | 1009.6 |
| 20260506145820 | 7 | 292 | 9.7 | 9.7 | 0.00 | 0.00 | 0.00 | 58 | 1009.6 |
| 20260506145316 | 7 | 305 | 9.7 | 11.3 | 0.00 | 0.00 | 0.00 | 56 | 1009.4 |
| 20260506144814 | 7 | 307 | 8.0 | 9.7 | 0.00 | 0.00 | 0.00 | 54 | 1009.6 |
| 20260506144310 | 7 | 304 | 11.3 | 12.9 | 0.00 | 0.00 | 0.00 | 57 | 1009.5 |
| 20260506143809 | 7 | 28 | 6.4 | 9.7 | 0.00 | 0.00 | 0.00 | 54 | 1009.3 |
| 20260506143305 | 7 | 338 | 1.6 | 8.0 | 0.00 | 0.00 | 0.00 | 55 | 1009.5 |
| 20260506142804 | 7 | 298 | 6.4 | 6.4 | 0.00 | 0.00 | 0.00 | 54 | 1009.6 |